Terminal Aerodrome Forecast
Issued by NWS Nashville, TN

Home | Current Version | Previous Version | Text Only | Print | Product List | Glossary On
Versions: 1 2 3 4 5 6 7 8 9 10 11 12 13 14 15 16 17 18 19 20 21 22 23 24 25 26 27 28 29 30 31
527
FTUS44 KOHX 292340
TAFBNA
TAF
KBNA 292340Z 3000/3024 23004KT P6SM BKN180 BKN250
     FM301200 24004KT P6SM SCT030
     FM301900 29005KT P6SM BKN100=

USA.gov is the U.S. government's official web portal to all federal, state and local government web resources and services.